Regional Weather Roundup
Issued by NWS San Angelo, TX

Home | Current Version | Previous Version | Text Only | Print | Product List | Glossary On
Versions: 1 2 3 4 5 6 7 8 9 10 11 12 13 14 15 16 17 18 19 20 21 22 23 24 25 26 27 28 29 30 31 32 33 34 35 36 37 38 39 40 41 42 43 44 45 46 47 48 49 50
000
ASUS44 KSJT 292110
RWRSJT
WEST CENTRAL TEXAS REGIONAL WEATHER ROUNDUP
NATIONAL WEATHER SERVICE SAN ANGELO TX
400 PM CDT TUE JUL 29 2014

NOTE: "FAIR" INDICATES FEW OR NO CLOUDS BELOW 12,000 FEET WITH NO
SIGNIFICANT WEATHER AND/OR OBSTRUCTIONS TO VISIBILITY.

TXZ049-054-064>066-071>073-076>078-098-099-113-114-127-128-139-140-
154-155-168>170-292200
...LOCATIONS ACROSS WEST CENTRAL TEXAS...

CITY           SKY/WX    TMP DP  RH WIND       PRES   REMARKS
SAN ANGELO     MOSUNNY   96  59  29 NE7       30.06F
ABILENE        PTSUNNY   90  64  42 SE12G17   30.12S
DYESS AFB      NOT AVBL
JUNCTION       MOSUNNY   97  55  24 E8        30.06F
SWEETWATER     PTSUNNY   84  63  48 NE20      30.14F
BROWNWOOD      MOSUNNY   91  66  43 E17       30.09F
COLEMAN        PTCLDY    94  62  34 SE5       30.09F
SONORA         SUNNY     95  55  26 VRB5      30.11F
OZONA          FAIR      97  50  20 S6        30.11F
BRADY          MOSUNNY   91  64  40 E7        30.08F
$$

TEXAS PANHANDLE/OKLAHOMA PANHANDLE

CITY           SKY/WX    TMP DP  RH WIND       PRES   REMARKS
AMARILLO       CLOUDY    79  62  56 SW9       30.20F
BORGER         CLOUDY    79  63  57 S9        30.17F
CANADIAN       CLOUDY    75  69  82 SE10      30.17F
DALHART        PTSUNNY   79  60  52 S17G25    30.18F
DUMAS          CLOUDY    77  61  56 S10G17    30.19F
GUYMON         NOT AVBL
HEREFORD       CLOUDY    77  65  66 S9        30.20F
PAMPA          CLOUDY    77  62  60 S13G18    30.21F
PERRYTON       CLOUDY    72  65  78 S17       30.18F
$$

SOUTHERN PANHANDLE/SOUTH PLAINS/ROLLING PLAINS

CITY           SKY/WX    TMP DP  RH WIND       PRES   REMARKS
LUBBOCK        CLOUDY    77  65  66 E6        30.19F
SNYDER         PTSUNNY   91  63  39 NE12      30.10F
CHILDRESS      PTSUNNY   81  60  48 SE14G20   30.16F
SEMINOLE       CLOUDY    85  60  42 NE10      30.17F
$$

PERMIAN BASIN

CITY           SKY/WX    TMP DP  RH WIND       PRES   REMARKS
MIDLAND        MOSUNNY   95  55  26 S17G23    30.09F
ODESSA         PTSUNNY   95  52  23 MISG      30.10F
WINK           PTSUNNY   96  50  20 S7        30.06F
$$

FAR WEST/SOUTHWEST MOUNTAINS/TRANS PECOS

CITY           SKY/WX    TMP DP  RH WIND       PRES   REMARKS
ALPINE         PTCLDY    89  47  24 SE7       30.24F
DRYDEN           N/A    101  55  21 SE17G24   30.04F
EL PASO        PTSUNNY   83  60  45 CALM      30.14F
FORT STOCKTON  MOSUNNY   95  49  20 SE12G21   30.09F
GUADALUPE PASS PTSUNNY   83  58  42 E13G20    30.28F
MARFA          PTSUNNY   88  48  25 CALM      30.24F
PECOS          CLEAR     99  46  16 SE6       30.05F
$$

DALLAS/FORT WORTH METROPLEX

CITY           SKY/WX    TMP DP  RH WIND       PRES   REMARKS
DFW AIRPORT    CLOUDY    80  58  46 CALM      30.11F
FTW MEACHAM    CLOUDY    81  66  60 CALM      30.11F
DAL-EXECUTIVE  LGT RAIN  81  68  64 N5        30.11F
GRAND PRAIRIE  SUNNY     79  63  57 CALM      30.12F
ADDISON        PTSUNNY   82  63  51 W5        30.14F
MESQUITE       CLEAR     84  63  48 W3        30.11F
LANCASTER      LGT RAIN  83  61  47 W3        30.11F
$$

NORTH CENTRAL TEXAS

CITY           SKY/WX    TMP DP  RH WIND       PRES   REMARKS
SHRMAN/DENISON PTCLDY    90  60  36 SW7       30.12F
GAINESVILLE    PTSUNNY   86  58  38 S7        30.15F
BRIDGEPORT     CLOUDY    76  64  65 CALM      30.15F
DENTON         LGT RAIN  79  59  50 CALM      30.12F
WAXAHACHIE     CLOUDY    80  61  53 CALM      30.13F
GRANBURY       MOCLDY    83  62  49 NE5       30.13F
$$

WESTERN NORTH TEXAS

CITY           SKY/WX    TMP DP  RH WIND       PRES   REMARKS
WICHITA FALLS  CLOUDY    77  62  59 NE3       30.15F
VERNON         MOCLDY    79  62  56 E6        30.17F
BRECKENRIDGE   PTCLDY    92  59  32 E14       30.10F HAZE
COMANCHE       MOSUNNY   91  64  39 E9G18     30.11F
$$

CENTRAL AND SOUTH CENTRAL TEXAS

CITY           SKY/WX    TMP DP  RH WIND       PRES   REMARKS
AUSTIN/BERGSTM PTSUNNY   97  67  37 NE8       30.02F
WACO           PTSUNNY   91  58  32 NE15      30.09F
HILLSBORO      CLOUDY    84  61  45 E3        30.12F
TEMPLE         MOSUNNY   91  66  43 E8G20     30.09F
KILLEEN-GRAY   PTSUNNY   88  72  58 SE15G25   30.09S
FORT HOOD      PTSUNNY   89  75  63 E8        30.09F THUNDER
GEORGETOWN     PTSUNNY   84  73  70 N21G28    30.07R
LAGO VISTA     MOCLDY    97  63  32 NE6       30.07F
SAN MARCOS     MOSUNNY   99  63  30 SE7G16    30.03F
NEW BRAUNFELS  MOSUNNY  100  60  26 SE6       30.01F
RANDOLPH AFB   MOSUNNY   98  59  26 S7        30.03F
SAN ANTONIO    PTSUNNY   97  62  31 SE8       30.03F
STINSON        SUNNY     98  60  28 S9        30.00F
PLEASANTON     NOT AVBL
LA GRANGE      MOSUNNY   97  69  40 NE6       30.02S
GIDDINGS       MOCLDY    94  65  37 CALM      30.08F
$$

EAST TEXAS

CITY           SKY/WX    TMP DP  RH WIND       PRES   REMARKS
PARIS          MOSUNNY   90  61  37 NW7       30.11F
CLARKSVILLE    CLEAR     90  57  33 N6        30.09F
TYLER          MOSUNNY   92  61  35 NW8       30.09F
LONGVIEW       MOSUNNY   91  60  35 CALM      30.07F
PALESTINE      NOT AVBL
NACOGDOCHES    MOSUNNY   90  66  45 N6        30.08S
$$

TEXAS HILL COUNTRY AND EDWARDS PLATEAU

CITY           SKY/WX    TMP DP  RH WIND       PRES   REMARKS
LLANO          CLEAR     97  66  36 E13G18    30.07F
HORSESHOE BAY  MOCLDY    95  61  31 E5        30.05F
KERRVILLE      MOSUNNY   97  57  26 SE6G17    30.07F
FREDERICKSBRG  PTSUNNY   95  53  24 S8        30.07F
ROCKSPRINGS    PTCLDY    93  55  27 SE6       30.12F
HONDO          SUNNY     96  61  31 S14       30.05F
UVALDE         CLEAR     98  51  20 SE9       30.03F
DEL RIO        SUNNY    100  54  21 E10       29.99F
$$

SOUTHEAST TEXAS

CITY           SKY/WX    TMP DP  RH WIND       PRES   REMARKS
COLLEGE STN    CLOUDY    83  76  79 CALM      30.07F HAZE
CALDWELL       MOCLDY    82  75  78 SW3       30.10F
CROCKETT         N/A     91  73  55 CALM      30.10F
BRENHAM        PTSUNNY   90  69  49 NE6       30.07S
HUNTSVILLE     MOSUNNY   92  65  40 CALM      30.07F
CONROE         PTSUNNY   87  74  64 E5        30.08S
HOUSTON BUSH   CLOUDY    79  74  84 S3        30.08S
HOUSTON HOBBY  CLOUDY    79  74  84 NE6       30.08R
PERLAND        CLOUDY    80  72  76 NE12      30.08R
WHARTON        PTCLDY    97  65  34 NE3       30.03S
$$

THE UPPER TEXAS COAST

CITY           SKY/WX    TMP DP  RH WIND       PRES   REMARKS
ORANGE         PTCLDY    89  72  56 CALM      30.05F
PORT ARTHUR    PTSUNNY   91  75  59 VRB3      30.03F
GALVESTON      PTSUNNY   88  76  67 VRB6      30.06S
ANGLETON       PTSUNNY   90  78  68 S14       30.03F
BAY CITY       MOCLDY    96  75  49 S9        30.02F
$$

TEXAS COASTAL BEND, RIO GRANDE PLAINS DEEP SOUTH TEXAS

CITY           SKY/WX    TMP DP  RH WIND       PRES   REMARKS
VICTORIA       SUNNY     99  68  36 SE10      30.01F
BEEVILLE       FAIR     101  59  24 SE12      30.00F
ROCKPORT       SUNNY     90  74  59 SE13G22   30.02F
PORT ARANSAS   CLEAR     86  76  72 SE10      30.03F
PORT LAVACA    NOT AVBL
CORPUS CHRISTI PTSUNNY   98  61  29 SE16G24   30.01F
KINGSVILLE NAS MOSUNNY  100  73  41 SE12G24   29.98F
COTULLA        SUNNY    100  53  20 SE6G21    29.99F
LAREDO         SUNNY    103  58  22 SE14      30.00F
BROWNSVILLE    SUNNY     95  71  45 SE12G21   30.00F
PORT ISABEL    SUNNY     92  74  55 E20G25    30.00F
HEBBRONVILLE   CLEAR    100  53  21 SE9G17    30.00F
MCALLEN        MOSUNNY  102  64  28 SE12G20   29.97F
WESLACO        SUNNY    100  61  28 SE9G17    29.97F
FALFURRIAS     CLEAR     94  54  25 SE8       29.97F
EDINBURG       PTCLDY   102  60  24 SE9       29.97F
$$


USA.gov is the U.S. government's official web portal to all federal, state and local government web resources and services.